記事タイトル:CometP/2001 TU80 (LINEAR-NEAT) 

最新の情報は「更新」や「再読み込み」ボタンを押してリロードしてご覧ください。

書き込み欄へ  ヘルプ
お名前: legalize gambling and editorial    URL

You can also check some relevant pages in the field of roulette system wins roulette system wins http://www.juris-net.com/world-poker-tour.html
betting black guide jack betting black guide jack http://www.juris-net.com/poker-chip-cases.html
keno prediction keno prediction http://www.juris-net.com/blackjack-strategy.html
bet roulette bet roulette http://www.juris-net.com/free-video-strip-poker.html
black jack downloads black jack downloads http://www.juris-net.com/strip-poker-online.html
craps statistics craps statistics http://www.juris-net.com/play-roulette.html
roulette computer roulette computer http://www.juris-net.com/trump-casino.html
craps tables craps tables http://www.juris-net.com/casino-slots-texas.html
florida casinos florida casinos http://www.juris-net.com/louisiana-gambling.html
strip poker rules strip poker rules http://www.juris-net.com/live-strip-poker.html
roulette free clipart roulette free clipart http://www.juris-net.com/poker-chip-values.html
fun blackjack fun blackjack http://www.juris-net.com/blackjack-dealer.html
black jack games black jack games http://www.juris-net.com/blackjack-systems.html
blackjack secrets blackjack secrets http://www.juris-net.com/how-to-play-slot-machines.html
winning blackjack winning blackjack http://www.juris-net.com/amr-slot.html
martingale blackjack martingale blackjack http://www.juris-net.com/black-jack-supplies.html
beat slot machines beat slot machines http://www.juris-net.com/slot-machine-winning-secrets.html
black jack cheat card black jack cheat card http://www.juris-net.com/blackjack-ski-resort.html
legal gambling age legal gambling age http://www.juris-net.com/legalize-casino-gambling.html
slot machine stands slot machine stands http://www.juris-net.com/blackjack-online-free.html
borgata casino borgata casino http://www.juris-net.com/blackjack-set.html
free roulette systems that work free roulette systems that work http://www.juris-net.com/blackjack%C2%A0%C2%A0strategy%C2%A0tips.html
writing roulette writing roulette http://www.juris-net.com/blackjack-roulette-poker.html
play on line blackjack for free play on line blackjack for free http://www.juris-net.com/counting-cards-blackjack.html
best blackjack dealers best blackjack dealers http://www.juris-net.com/craps-instruction.html
bon ton roulette bon ton roulette http://www.juris-net.com/roulette-gaming-rules.html
winstar casino winstar casino http://www.juris-net.com/aida-blackjack.html
poker and chip poker and chip http://www.juris-net.com/felt-blackjack-layouts.html
craps games craps games http://www.juris-net.com/3d-blackjack-trainer.html
mit blackjack mit blackjack http://www.juris-net.com/players-choice-keno.html
black jack roulette game download black jack roulette game download http://www.juris-net.com/roulette-spins.html
las vegas casino employment las vegas casino employment http://www.juris-net.com/cheat-roulette-big-shot-pogo-moon.html
naked blackjack naked blackjack http://www.juris-net.com/keno-winning.html
california casinos california casinos http://www.juris-net.com/michigan-keno-calculation.html
free roulette strategies free roulette strategies http://www.juris-net.com/number-frequency-playing-10-number-keno.html
... Thanks!!!

[2005年5月8日 9時45分30秒]

お名前: 佐藤 裕久   
11月16.5日UT、PalomarのNEATによって3″のコマのある星霧状の天体が発見され、
Gareth V. Williams(MPC)が先にLINEARによって、10月13日と17日に外見は
小惑星状天体(m2 = 19.8;MPS 39482に発見観測)として観測されていたものと同定
した。また、10月19日には、ハワイ、HaleakalaのNEATでも観測されていた。
(MPS 40840)軌道は、MPEC 2001-V35にある。
NEO Confirmation Pageに公表され、11月17.2日UT、Ondrejov天文台(0.65-m反射
+CCD)の観測でで0'.3のコマのある彗星とわかった。

発見位置は次のとおり、

     2001 UT             R.A. (2000) Decl.        m1    Observer
     Oct. 13.44483    7 21 41.06   +18 15 03.1          LINEAR
     Nov. 16.52608    8 14 55.59   +17 15 12.8   17.9   NEAT

軌道要素、位置推算表は次のとおり、

Orbital elements:
    P/2001 TU80 (LINEAR-NEAT)
T 2001 Dec.  9.2409 TT                                  MPC
q   1.937019             (2000.0)            P               Q
n   0.1370106      Peri.  354.7750      -0.2417804      -0.9642632
a   3.726489       Node   109.1832      +0.8943652      -0.2647676
e   0.480203       Incl.    6.5872      +0.3763684      +0.0097218
P   7.19
From 27 observations 2001 Oct. 13-Nov. 17.

Ephemeris:
    P/2001 TU80 (LINEAR-NEAT)
Date    TT    R. A. (2000) Decl.     Delta      r     Elong.  Phase   m1
2001 11 17    08 15.50   +17 14.9    1.341    1.946   112.5    28.0  17.5
2001 11 27    08 26.29   +17 15.0    1.247    1.940   120.1    26.1  17.4
2001 12 07    08 34.20   +17 30.4    1.164    1.937   128.4    23.5  17.2
2001 12 17    08 38.86   +18 04.2    1.094    1.938   137.7    20.0  17.1
2001 12 27    08 40.10   +18 57.3    1.039    1.943   147.8    15.6  17.0
2002 01 06    08 38.16   +20 06.8    1.002    1.952   158.7    10.6  16.9
2002 01 16    08 33.68   +21 25.9    0.988    1.964   169.9     5.0  16.9
2002 01 26    08 27.94   +22 44.8    0.996    1.979   175.9     2.0  17.0
2002 02 05    08 22.47   +23 53.7    1.028    1.999   165.6     7.0  17.1
2002 02 15    08 18.66   +24 45.9    1.083    2.021   154.7    12.1  17.2
2002 02 25    08 17.55   +25 18.2    1.159    2.046   144.3    16.4  17.4
2002 03 07    08 19.54   +25 31.1    1.252    2.074   134.7    19.9  17.7
2002 03 17    08 24.56   +25 26.1    1.361    2.105   126.0    22.5  17.9
2002 03 27    08 32.32   +25 05.3    1.481    2.138   117.9    24.4  18.2

(IAUC 7753、MPEC 2001-W22)
[2001年11月18日 16時55分10秒]

この記事への返信をどうぞ。
氏名
E-mail URL



記事一覧に戻る